OpenBCM V1.13 (Linux)

Packet Radio Mailbox

DB0FHN

[JN59NK Nuernberg]

 Login: GUEST





  
UA9FBV > KEPS     14.02.03 10:05l 276 Lines 7265 Bytes #999 (0) @ AMSAT
BID : ORB03044.D
Read: DB0FHN GUEST
Subj: Orbital Elements  03044.MICROS
Path: DB0FHN<DB0ZWI<DB0HST<ON0DXC<WA7V<RZ6HXA<UA9FBV
Sent: 030214/0728Z @:UA9FBV.PRM.RUS.AS #:28210 [Perm] FBB7.00i $:ORB03044.D
From: UA9FBV@UA9FBV.PRM.RUS.AS
To  : KEPS@AMSAT

HR AMSAT ORBITAL ELEMENTS FOR THE MICROSATS
FROM WA5QGD FORT WORTH,TX February 13, 2003
SEND SUBSCRIBE/UNSUBSCRIBE TO majordomo@amsat.org ONLY
BID: ORB03044.D
TO ALL RADIO AMATEURS BT

Satellite: UO-14
Catalog number: 20437
Epoch time:      03044.18557254
Element set:     163
Inclination:       98.2738 deg
RA of node:        88.0563 deg
Eccentricity:    0.0009949
Arg of perigee:   215.6245 deg
Mean anomaly:     144.4275 deg
Mean motion:   14.31235925 rev/day
Decay rate:       1.36e-06 rev/day^2
Epoch rev:           68172
Checksum:              308

Satellite: AO-16
Catalog number: 20439
Epoch time:      03044.69065068
Element set:     851
Inclination:       98.3187 deg
RA of node:       100.1926 deg
Eccentricity:    0.0010193
Arg of perigee:   221.1714 deg
Mean anomaly:     138.8713 deg
Mean motion:   14.31469963 rev/day
Decay rate:       1.72e-06 rev/day^2
Epoch rev:           68183
Checksum:              300

Satellite: WO-18
Catalog number: 20441
Epoch time:      03044.88141049
Element set:      11
Inclination:       98.3337 deg
RA of node:       103.4708 deg
Eccentricity:    0.0011026
Arg of perigee:   219.1838 deg
Mean anomaly:     140.8549 deg
Mean motion:   14.31551861 rev/day
Decay rate:       1.76e-06 rev/day^2
Epoch rev:           68191
Checksum:              281

Satellite: LO-19
Catalog number: 20442
Epoch time:      03044.23138809
Element set:     962
Inclination:       98.3482 deg
RA of node:       105.8617 deg
Eccentricity:    0.0011128
Arg of perigee:   222.3831 deg
Mean anomaly:     137.6494 deg
Mean motion:   14.31714582 rev/day
Decay rate:       1.95e-06 rev/day^2
Epoch rev:           68187
Checksum:              305

Satellite: UO-22
Catalog number: 21575
Epoch time:      03044.15431981
Element set:     724
Inclination:       98.1408 deg
RA of node:        36.5495 deg
Eccentricity:    0.0007978
Arg of perigee:   143.2200 deg
Mean anomaly:     216.9538 deg
Mean motion:   14.39150395 rev/day
Decay rate:       3.55e-06 rev/day^2
Epoch rev:           60750
Checksum:              300

Satellite: KO-23
Catalog number: 22077
Epoch time:      03044.51429948
Element set:     154
Inclination:       66.0872 deg
RA of node:       136.3141 deg
Eccentricity:    0.0015528
Arg of perigee:   275.1186 deg
Mean anomaly:      84.8061 deg
Mean motion:   12.86408248 rev/day
Decay rate:       -3.7e-07 rev/day^2
Epoch rev:           49365
Checksum:              304

Satellite: AO-27
Catalog number: 22825
Epoch time:      03044.22079390
Element set:     485
Inclination:       98.2756 deg
RA of node:        74.1900 deg
Eccentricity:    0.0007624
Arg of perigee:   278.4614 deg
Mean anomaly:      81.5704 deg
Mean motion:   14.28941055 rev/day
Decay rate:       1.57e-06 rev/day^2
Epoch rev:           48911
Checksum:              307

Satellite: IO-26
Catalog number: 22826
Epoch time:      03044.11188106
Element set:     307
Inclination:       98.2767 deg
RA of node:        75.2007 deg
Eccentricity:    0.0008222
Arg of perigee:   279.1156 deg
Mean anomaly:      80.9094 deg
Mean motion:   14.29163859 rev/day
Decay rate:       1.73e-06 rev/day^2
Epoch rev:           48914
Checksum:              305

Satellite: KO-25
Catalog number: 22828
Epoch time:      03044.16350113
Element set:     424
Inclination:       98.2714 deg
RA of node:        75.5119 deg
Eccentricity:    0.0009098
Arg of perigee:   253.2809 deg
Mean anomaly:     106.7374 deg
Mean motion:   14.29506143 rev/day
Decay rate:       1.33e-06 rev/day^2
Epoch rev:           45735
Checksum:              288

Satellite: TO-31
Catalog number: 25396
Epoch time:      03043.91273721
Element set:    0825
Inclination:      098.6281 deg
RA of node:       121.1306 deg
Eccentricity:    0.0003622
Arg of perigee:   139.2789 deg
Mean anomaly:     220.8667 deg
Mean motion:   14.23508990 rev/day
Decay rate:       -4.3e-07 rev/day^2
Epoch rev:           23872
Checksum:              299

Satellite: GO-32
Catalog number: 25397
Epoch time:      03043.93235492
Element set:    0133
Inclination:      098.6224 deg
RA of node:       120.0366 deg
Eccentricity:    0.0001678
Arg of perigee:   133.8159 deg
Mean anomaly:     226.3156 deg
Mean motion:   14.22958555 rev/day
Decay rate:        8.4e-07 rev/day^2
Epoch rev:           23869
Checksum:              308

Satellite: UO-36
Catalog number: 25693
Epoch time:      03044.40216824
Element set:     701
Inclination:       64.5600 deg
RA of node:        26.5997 deg
Eccentricity:    0.0019697
Arg of perigee:   315.8098 deg
Mean anomaly:      44.1459 deg
Mean motion:   14.76382750 rev/day
Decay rate:       6.12e-06 rev/day^2
Epoch rev:           20549
Checksum:              314

Satellite: AO-37
Catalog number: 26065
Epoch time:      03044.21495537
Element set:     732
Inclination:      100.2113 deg
RA of node:        97.9709 deg
Eccentricity:    0.0037023
Arg of perigee:   303.3937 deg
Mean anomaly:      56.3703 deg
Mean motion:   14.35506589 rev/day
Decay rate:       2.03e-06 rev/day^2
Epoch rev:           15961
Checksum:              287

Satellite: SO-41
Catalog number: 26545
Epoch time:      03044.27158738
Element set:     411
Inclination:       64.5596 deg
RA of node:        48.2041 deg
Eccentricity:    0.0052420
Arg of perigee:   239.6318 deg
Mean anomaly:     119.9553 deg
Mean motion:   14.78969627 rev/day
Decay rate:      1.663e-05 rev/day^2
Epoch rev:           12843
Checksum:              319

Satellite: MO-46
Catalog number: 26548
Epoch time:      03043.49212840
Element set:     414
Inclination:       64.5585 deg
RA of node:        43.5560 deg
Eccentricity:    0.0045853
Arg of perigee:   238.7966 deg
Mean anomaly:     120.8658 deg
Mean motion:   14.81251807 rev/day
Decay rate:      2.185e-05 rev/day^2
Epoch rev:           12846
Checksum:              319

Satellite: SO-42
Catalog number: 26549
Epoch time:      03044.50686210
Element set:     691
Inclination:       64.5517 deg
RA of node:        51.5678 deg
Eccentricity:    0.0056925
Arg of perigee:   239.7181 deg
Mean anomaly:     119.8285 deg
Mean motion:   14.77906820 rev/day
Decay rate:      1.406e-05 rev/day^2
Epoch rev:           12839
Checksum:              326

Satellite: NO-44
Catalog number: 26931
Epoch time:      03044.20640267
Element set:     400
Inclination:       67.0477 deg
RA of node:       269.4199 deg
Eccentricity:    0.0004998
Arg of perigee:   264.8882 deg
Mean anomaly:      95.1647 deg
Mean motion:   14.29112460 rev/day
Decay rate:       1.88e-06 rev/day^2
Epoch rev:            7158
Checksum:              320

Satellite: AO-49
Catalog number: 27605
Epoch time:      03044.89029666
Element set:      57
Inclination:       64.5524 deg
RA of node:       211.4435 deg
Eccentricity:    0.0034873
Arg of perigee:   115.2981 deg
Mean anomaly:     245.1748 deg
Mean motion:   14.71353621 rev/day
Decay rate:       5.15e-06 rev/day^2
Epoch rev:             812
Checksum:              296

Satellite: SO-50
Catalog number: 27607
Epoch time:      03044.53992275
Element set:      51
Inclination:       64.5508 deg
RA of node:       212.9122 deg
Eccentricity:    0.0037647
Arg of perigee:   112.5655 deg
Mean anomaly:     247.9441 deg
Mean motion:   14.69889488 rev/day
Decay rate:      1.379e-05 rev/day^2
Epoch rev:             806
Checksum:              324



Read previous mail | Read next mail


 11.09.2026 02:38:58lGo back Go up